Weather in Barrikada

Russia / Omsk Oblast     54°47′00″N   71°32′36″E
temp.,
°C
wind,
m/s
gust,
m/s
humid.,
%
clouds,
%
prec.,
mm/h
press.,
hPa
HPBL,
m
19 april, mon
mon1900:00−4n812535 0.0 10231215
03:00−5n795559 0.0 10261186
06:00−7n78505 0.0 1028994
09:00−6n67435 0.0 10301114
12:00−4n56345 0.0 10311478
15:00−2n673184 0.0 10301965
18:00−2n6730100 0.0 10302111
21:00−3nne3742100 0.0 1031385
20 april, tue
tue2000:00−4nne36475 0.0 1032416
03:00−5nne24492 0.0 1032905
06:00−5n24510 0.0 1033942
09:00−4n34415 0.0 10331160
12:00−1nw33345 0.0 10321398
15:00+1wnw45303 0.0 10301557
18:00+2w57325 0.0 10291517
21:000wsw475314 0.0 1028128
21 april, wed
wed2100:000wsw5125580 0.0 1026291
03:000w7145498 0.0 1024392
06:00+1wnw61363100 0.0 1024387
09:00+3nnw6106812 0.0 1025699
12:00+6n68485 0.0 10261424
15:00+8n684174 0.0 10271786
18:00+6nne784438 0.0 10301558
21:00+3ne48585 0.0 1033274
22 april, thu
thu2200:00+1ne37735 0.0 1035202
03:00−1ne35825 0.0 1037164
06:00−1ne25815 0.0 1039194
09:00+1e34585 0.0 1041715
12:00+4ese33435 0.0 10421205
15:00+6ese22365 0.0 10411352
18:00+7se223583 0.0 10421393
21:00+5se2347100 0.0 104334
23 april, fri
fri2300:00+3se3556100 0.0 104375
03:00+1sse34630 0.0 104355
06:000sse34690 0.0 104365
09:00+5sse46540 0.0 1044413
12:00+8sse554110 0.0 10431305
15:00+9sse44352 0.0 10421565
18:00+10se44340 0.0 10411590
21:00+6se35480 0.0 104186